SAS2777 EKCH-LGAV

Flight info

Callsign SAS2777
Flight time N/A
Altitude 39000
Route SIMEG Z493 XELOL DCT VAGON DCT REGLI DCT AMRAX DCT PARAK DCT RAXAD DCT MAKED UP20 ROPOX
Aircraft A20N/M-SDE3FGIJ1RWXY/ALB1

Departure

Time 2026-04-30 12:44
Airport Copenhagen Kastrup Airport (EKCH)

Arrival

Time N/A
Airport Athens Eleftherios Venizelos International Airport (LGAV)
Time Latitude Longitude Altitude Speed Heading
2026-04-30 12:00 55.62712 12.65321 18 ft 0 kts 18°
2026-04-30 12:01 55.62713 12.64449 21 ft 0 kts 103°
2026-04-30 12:27 55.62714 12.64434 21 ft 2 kts 95°
2026-04-30 12:28 55.62714 12.64408 21 ft 2 kts 81°
2026-04-30 12:28 55.62710 12.64382 21 ft 2 kts 67°
2026-04-30 12:28 55.62703 12.64359 21 ft 2 kts 53°
2026-04-30 12:28 55.62693 12.64339 21 ft 2 kts 39°
2026-04-30 12:29 55.62680 12.64325 21 ft 2 kts 25°
2026-04-30 12:29 55.62666 12.64315 21 ft 2 kts 22°
2026-04-30 12:29 55.62652 12.64305 21 ft 2 kts 22°
2026-04-30 12:29 55.62638 12.64295 21 ft 2 kts 23°
2026-04-30 12:30 55.62625 12.64283 21 ft 2 kts 31°
2026-04-30 12:30 55.62613 12.64269 21 ft 2 kts 33°
2026-04-30 12:30 55.62600 12.64254 21 ft 2 kts 33°
2026-04-30 12:30 55.62587 12.64240 21 ft 2 kts 33°
2026-04-30 12:31 55.62574 12.64226 21 ft 2 kts 33°
2026-04-30 12:31 55.62562 12.64211 21 ft 2 kts 34°
2026-04-30 12:31 55.62551 12.64194 21 ft 2 kts 59°
2026-04-30 12:31 55.62545 12.64169 21 ft 2 kts 85°
2026-04-30 12:32 55.62547 12.64142 21 ft 2 kts 111°
2026-04-30 12:32 55.62555 12.64120 21 ft 2 kts 125°
2026-04-30 12:32 55.62563 12.64097 21 ft 2 kts 123°
2026-04-30 12:32 55.62571 12.64075 21 ft 2 kts 123°
2026-04-30 12:33 55.62574 12.64068 21 ft 0 kts 123°
2026-04-30 12:34 55.62573 12.64068 21 ft 0 kts 123°
2026-04-30 12:34 55.62571 12.64076 21 ft 1 kts 123°
2026-04-30 12:35 55.62558 12.64110 21 ft 4 kts 123°
2026-04-30 12:35 55.62535 12.64173 21 ft 7 kts 124°
2026-04-30 12:35 55.62505 12.64254 21 ft 7 kts 124°
2026-04-30 12:35 55.62470 12.64339 21 ft 9 kts 128°
2026-04-30 12:36 55.62429 12.64431 21 ft 10 kts 123°
2026-04-30 12:36 55.62387 12.64538 21 ft 11 kts 125°
2026-04-30 12:36 55.62343 12.64656 21 ft 11 kts 121°
2026-04-30 12:36 55.62294 12.64772 21 ft 6 kts 144°
2026-04-30 12:37 55.62248 12.64795 21 ft 7 kts 182°
2026-04-30 12:37 55.62193 12.64756 21 ft 9 kts 214°
2026-04-30 12:37 55.62135 12.64685 21 ft 10 kts 214°
2026-04-30 12:37 55.62067 12.64607 21 ft 12 kts 213°
2026-04-30 12:38 55.62009 12.64546 21 ft 2 kts 207°
2026-04-30 12:38 55.61999 12.64537 21 ft 3 kts 206°
2026-04-30 12:38 55.61957 12.64508 22 ft 8 kts 193°
2026-04-30 12:38 55.61895 12.64510 22 ft 9 kts 170°
2026-04-30 12:39 55.61822 12.64535 22 ft 11 kts 168°
2026-04-30 12:39 55.61735 12.64564 22 ft 13 kts 171°
2026-04-30 12:39 55.61640 12.64526 22 ft 15 kts 212°
2026-04-30 12:39 55.61548 12.64421 22 ft 16 kts 213°
2026-04-30 12:40 55.61448 12.64307 22 ft 16 kts 213°
2026-04-30 12:40 55.61350 12.64197 22 ft 17 kts 213°
2026-04-30 12:40 55.61264 12.64097 22 ft 14 kts 214°
2026-04-30 12:40 55.61176 12.63996 23 ft 15 kts 213°
2026-04-30 12:41 55.61081 12.63884 22 ft 17 kts 214°
2026-04-30 12:41 55.60977 12.63765 22 ft 18 kts 214°
2026-04-30 12:41 55.60876 12.63648 22 ft 16 kts 213°
2026-04-30 12:41 55.60814 12.63595 22 ft 3 kts 186°
2026-04-30 12:42 55.60799 12.63596 22 ft 4 kts 169°
2026-04-30 12:42 55.60750 12.63655 22 ft 12 kts 135°
2026-04-30 12:42 55.60710 12.63801 22 ft 10 kts 88°
2026-04-30 12:42 55.60715 12.63904 23 ft 8 kts 75°
2026-04-30 12:43 55.60757 12.63997 23 ft 15 kts 42°
2026-04-30 12:43 55.61005 12.64377 24 ft 82 kts 41°
2026-04-30 12:43 55.61606 12.65311 22 ft 143 kts 41°
2026-04-30 12:43 55.62420 12.66585 325 ft 165 kts 40°
2026-04-30 12:44 55.63287 12.67932 981 ft 167 kts 38°
2026-04-30 12:44 55.64165 12.69279 1662 ft 170 kts 36°
2026-04-30 12:44 55.65063 12.70664 2190 ft 179 kts 36°
2026-04-30 12:44 55.66059 12.72171 2604 ft 195 kts 36°
2026-04-30 12:45 55.67155 12.73805 2943 ft 218 kts 36°
2026-04-30 12:45 55.68368 12.75612 3439 ft 236 kts 37°
2026-04-30 12:45 55.69632 12.77619 3978 ft 253 kts 46°
2026-04-30 12:45 55.70411 12.80437 4775 ft 266 kts 76°
2026-04-30 12:46 55.70352 12.83710 5729 ft 273 kts 102°
2026-04-30 12:46 55.69432 12.86638 6617 ft 282 kts 130°
2026-04-30 12:46 55.67781 12.88546 7492 ft 291 kts 156°
2026-04-30 12:46 55.65871 12.89725 8308 ft 295 kts 158°
2026-04-30 12:47 55.63929 12.90903 9102 ft 299 kts 157°
2026-04-30 12:47 55.61929 12.91973 9860 ft 307 kts 168°
2026-04-30 12:47 55.59791 12.91600 10604 ft 317 kts 201°
2026-04-30 12:47 55.57966 12.89409 11322 ft 322 kts 227°
2026-04-30 12:48 55.56457 12.86493 12036 ft 327 kts 230°
2026-04-30 12:48 55.54922 12.83490 12711 ft 333 kts 229°
2026-04-30 12:48 55.53334 12.80487 13383 ft 339 kts 226°
2026-04-30 12:48 55.51467 12.77973 14030 ft 343 kts 201°
2026-04-30 12:49 55.49199 12.77161 14740 ft 337 kts 173°
2026-04-30 12:49 55.46866 12.77652 15496 ft 335 kts 165°
2026-04-30 12:49 55.44577 12.78410 16168 ft 340 kts 165°
2026-04-30 12:49 55.42228 12.79119 16822 ft 345 kts 166°
2026-04-30 12:50 55.39829 12.79728 17474 ft 350 kts 167°
2026-04-30 12:50 55.37425 12.80273 18143 ft 353 kts 167°
2026-04-30 12:50 55.35068 12.81438 18732 ft 345 kts 144°
2026-04-30 12:50 55.33315 12.84056 19343 ft 330 kts 119°
2026-04-30 12:51 55.32323 12.87562 19932 ft 318 kts 98°
2026-04-30 12:51 55.31890 12.91344 20542 ft 318 kts 94°
2026-04-30 12:51 55.31484 12.95171 21113 ft 322 kts 95°
2026-04-30 12:51 55.31061 12.99018 21711 ft 325 kts 95°
2026-04-30 12:52 55.30615 13.02958 22277 ft 328 kts 95°
2026-04-30 12:52 55.30163 13.06878 22804 ft 332 kts 95°
2026-04-30 12:52 55.29697 13.10874 23337 ft 336 kts 95°
2026-04-30 12:52 55.29226 13.14881 23860 ft 340 kts 95°
2026-04-30 12:53 55.28745 13.18942 24387 ft 343 kts 95°
2026-04-30 12:53 55.28254 13.23070 24924 ft 345 kts 95°
2026-04-30 12:53 55.27757 13.27225 25455 ft 348 kts 95°
2026-04-30 12:53 55.27264 13.31354 25943 ft 351 kts 95°
2026-04-30 12:54 55.26758 13.35554 26442 ft 353 kts 95°
2026-04-30 12:54 55.26254 13.39734 26914 ft 356 kts 95°
2026-04-30 12:54 55.25735 13.44027 27379 ft 358 kts 95°
2026-04-30 12:54 55.25025 13.48214 27801 ft 368 kts 105°
2026-04-30 12:55 55.23825 13.52249 28211 ft 380 kts 116°
2026-04-30 12:55 55.22199 13.55925 28635 ft 388 kts 123°
2026-04-30 12:55 55.20418 13.59512 29067 ft 391 kts 124°
2026-04-30 12:55 55.18603 13.63118 29467 ft 394 kts 124°
2026-04-30 12:56 55.16801 13.66705 29857 ft 397 kts 124°
2026-04-30 12:56 55.14970 13.70354 30259 ft 399 kts 124°
2026-04-30 12:56 55.13124 13.74046 30652 ft 401 kts 124°
2026-04-30 12:56 55.11282 13.77727 31010 ft 404 kts 124°
2026-04-30 12:57 55.09448 13.81397 31364 ft 406 kts 124°
2026-04-30 12:57 55.07561 13.85165 31701 ft 408 kts 124°
2026-04-30 12:57 55.05707 13.88866 32014 ft 410 kts 124°
2026-04-30 12:57 55.03828 13.92603 32356 ft 412 kts 124°
2026-04-30 12:58 55.01934 13.96369 32655 ft 414 kts 124°
2026-04-30 12:58 55.00035 14.00139 32932 ft 416 kts 124°
2026-04-30 12:58 54.98109 14.03952 33205 ft 418 kts 124°
2026-04-30 12:58 54.96188 14.07753 33474 ft 421 kts 124°
2026-04-30 12:59 54.94210 14.11568 33740 ft 425 kts 127°
2026-04-30 12:59 54.92113 14.15181 34000 ft 429 kts 130°
2026-04-30 12:59 54.89851 14.18624 34244 ft 434 kts 134°
2026-04-30 12:59 54.87439 14.21851 34479 ft 439 kts 138°
2026-04-30 13:00 54.84907 14.24918 34704 ft 441 kts 138°
2026-04-30 13:00 54.82393 14.27949 34904 ft 443 kts 138°
2026-04-30 13:00 54.77295 14.34118 35093 ft 451 kts 139°
2026-04-30 13:01 54.74683 14.37153 35256 ft 455 kts 140°
2026-04-30 13:01 54.72013 14.40160 35429 ft 456 kts 140°
2026-04-30 13:01 54.69346 14.43150 35608 ft 457 kts 140°
2026-04-30 13:01 54.66702 14.46113 35789 ft 458 kts 140°
2026-04-30 13:02 54.63986 14.49160 35948 ft 459 kts 140°
2026-04-30 13:02 54.61335 14.52136 36138 ft 459 kts 140°
2026-04-30 13:02 54.58636 14.55163 36347 ft 458 kts 140°
2026-04-30 13:02 54.55973 14.58147 36539 ft 458 kts 140°
2026-04-30 13:03 54.53325 14.61110 36724 ft 458 kts 140°
2026-04-30 13:03 54.50634 14.64120 36897 ft 458 kts 140°
2026-04-30 13:03 54.47978 14.67085 37084 ft 459 kts 140°
2026-04-30 13:03 54.45306 14.70063 37259 ft 459 kts 140°
2026-04-30 13:04 54.42611 14.73063 37464 ft 459 kts 140°
2026-04-30 13:04 54.39948 14.76022 37668 ft 459 kts 140°
2026-04-30 13:04 54.37275 14.78981 37914 ft 458 kts 140°
2026-04-30 13:04 54.34588 14.81961 38093 ft 458 kts 140°
2026-04-30 13:05 54.31942 14.84891 38245 ft 458 kts 140°
2026-04-30 13:05 54.29230 14.87836 38399 ft 460 kts 142°
2026-04-30 13:05 54.26459 14.90513 38551 ft 464 kts 146°
2026-04-30 13:06 54.20604 14.95295 38876 ft 466 kts 148°
2026-04-30 13:06 54.17688 14.97626 39002 ft 466 kts 148°
2026-04-30 13:06 54.14761 14.99963 39092 ft 467 kts 148°
2026-04-30 13:06 54.11816 15.02316 39208 ft 468 kts 148°
2026-04-30 13:07 54.08877 15.04662 39336 ft 468 kts 148°
2026-04-30 13:07 54.02978 15.09358 39415 ft 467 kts 148°
2026-04-30 13:08 53.97118 15.14013 39414 ft 468 kts 148°
2026-04-30 13:08 53.91233 15.18673 39407 ft 468 kts 148°
2026-04-30 13:09 53.85375 15.23298 39393 ft 467 kts 148°
2026-04-30 13:09 53.79460 15.27955 39392 ft 468 kts 148°
2026-04-30 13:10 53.73570 15.32578 39392 ft 469 kts 147°
2026-04-30 13:10 53.67670 15.37192 39395 ft 468 kts 147°
2026-04-30 13:11 53.61771 15.41791 39383 ft 468 kts 148°
2026-04-30 13:11 53.55893 15.46362 39389 ft 468 kts 147°
2026-04-30 13:12 53.49972 15.50951 39375 ft 469 kts 147°
2026-04-30 13:12 53.44081 15.55503 39376 ft 469 kts 148°
2026-04-30 13:13 53.35200 15.62338 39380 ft 470 kts 147°
2026-04-30 13:14 53.26301 15.69155 39377 ft 469 kts 148°
2026-04-30 13:14 53.17428 15.75923 39364 ft 470 kts 148°
2026-04-30 13:15 53.08501 15.82700 39357 ft 470 kts 148°
2026-04-30 13:16 53.02571 15.87180 39361 ft 470 kts 148°
2026-04-30 13:16 52.96658 15.91636 39372 ft 470 kts 149°
2026-04-30 13:17 52.87720 15.98347 39358 ft 471 kts 148°
2026-04-30 13:18 52.78802 16.05016 39337 ft 470 kts 149°
2026-04-30 13:18 52.69880 16.11657 39346 ft 471 kts 149°
2026-04-30 13:19 52.63938 16.16062 39346 ft 470 kts 149°
2026-04-30 13:19 52.57979 16.20467 39343 ft 470 kts 149°
2026-04-30 13:20 52.52026 16.24855 39333 ft 470 kts 149°
2026-04-30 13:20 52.46096 16.29214 39329 ft 469 kts 149°
2026-04-30 13:21 52.40124 16.33593 39339 ft 470 kts 149°
2026-04-30 13:22 52.31218 16.40091 39349 ft 470 kts 149°
2026-04-30 13:22 52.22267 16.46600 39350 ft 470 kts 149°
2026-04-30 13:23 52.13303 16.53084 39369 ft 470 kts 149°
2026-04-30 13:24 52.01355 16.61684 39372 ft 471 kts 149°
2026-04-30 13:25 51.89370 16.70263 39345 ft 472 kts 151°
2026-04-30 13:26 51.74552 16.80795 39354 ft 472 kts 150°
2026-04-30 13:28 51.59555 16.91382 39353 ft 472 kts 151°
2026-04-30 13:28 51.50580 16.97679 39359 ft 471 kts 151°
2026-04-30 13:29 51.38595 17.06053 39374 ft 471 kts 151°
2026-04-30 13:31 51.23607 17.16552 39387 ft 470 kts 150°
2026-04-30 13:32 51.08698 17.27088 39388 ft 471 kts 151°
2026-04-30 13:33 50.96741 17.35467 39379 ft 469 kts 151°
2026-04-30 13:34 50.87818 17.41693 39384 ft 469 kts 151°
2026-04-30 13:35 50.76457 17.49583 39377 ft 469 kts 151°
2026-04-30 13:36 50.64471 17.57857 39378 ft 470 kts 151°
2026-04-30 13:36 50.55533 17.64000 39370 ft 468 kts 151°
2026-04-30 13:37 50.46798 17.69980 39382 ft 469 kts 152°
2026-04-30 13:38 50.37801 17.76111 39357 ft 468 kts 152°
2026-04-30 13:39 50.25869 17.84204 39363 ft 468 kts 152°
2026-04-30 13:40 50.16913 17.90252 39371 ft 469 kts 152°
2026-04-30 13:40 50.10953 17.94265 39365 ft 468 kts 153°
2026-04-30 13:41 50.04935 17.98301 39359 ft 469 kts 153°
2026-04-30 13:41 49.99058 18.02500 39369 ft 467 kts 150°
2026-04-30 13:42 49.93183 18.06821 39374 ft 467 kts 150°
2026-04-30 13:42 49.84460 18.13218 39376 ft 467 kts 150°
2026-04-30 13:43 49.78559 18.17534 39376 ft 467 kts 150°
2026-04-30 13:43 49.72805 18.21730 39372 ft 467 kts 151°
2026-04-30 13:44 49.66938 18.25991 39369 ft 466 kts 150°
2026-04-30 13:44 49.61060 18.30255 39362 ft 466 kts 151°
2026-04-30 13:45 49.52280 18.36601 39339 ft 465 kts 151°
2026-04-30 13:46 49.46429 18.40815 39337 ft 466 kts 151°
2026-04-30 13:46 49.40576 18.45022 39331 ft 466 kts 151°
2026-04-30 13:47 49.34704 18.49230 39331 ft 466 kts 151°
2026-04-30 13:47 49.28831 18.53425 39335 ft 465 kts 151°
2026-04-30 13:48 49.22979 18.57598 39344 ft 465 kts 151°
2026-04-30 13:48 49.17115 18.61765 39340 ft 464 kts 151°
2026-04-30 13:49 49.11268 18.65913 39335 ft 464 kts 152°
2026-04-30 13:49 49.05666 18.69872 39315 ft 464 kts 152°
2026-04-30 13:50 48.99804 18.74009 39293 ft 465 kts 153°
2026-04-30 13:50 48.90986 18.80208 39280 ft 464 kts 153°
2026-04-30 13:51 48.85313 18.84183 39276 ft 464 kts 153°
2026-04-30 13:51 48.79851 18.88002 39267 ft 464 kts 153°
2026-04-30 13:52 48.74448 18.91771 39254 ft 464 kts 153°
2026-04-30 13:52 48.68600 18.95839 39251 ft 465 kts 153°
2026-04-30 13:53 48.62726 18.99917 39259 ft 465 kts 153°
2026-04-30 13:53 48.56845 19.03987 39266 ft 464 kts 153°
2026-04-30 13:54 48.50941 19.08064 39268 ft 465 kts 153°
2026-04-30 13:54 48.45094 19.12091 39276 ft 465 kts 153°
2026-04-30 13:55 48.39205 19.16137 39263 ft 465 kts 153°
2026-04-30 13:55 48.33324 19.20165 39278 ft 465 kts 153°
2026-04-30 13:56 48.27435 19.24190 39270 ft 465 kts 153°
2026-04-30 13:56 48.21548 19.28206 39275 ft 465 kts 153°
2026-04-30 13:57 48.15652 19.32215 39293 ft 465 kts 153°
2026-04-30 13:57 48.09663 19.36055 39288 ft 466 kts 158°
2026-04-30 13:58 48.00297 19.40112 39299 ft 467 kts 163°
2026-04-30 13:59 47.93991 19.42557 39296 ft 467 kts 163°
2026-04-30 13:59 47.87709 19.44999 39296 ft 467 kts 163°
2026-04-30 14:00 47.81697 19.47333 39299 ft 467 kts 163°
2026-04-30 14:00 47.72417 19.50924 39309 ft 467 kts 164°
2026-04-30 14:01 47.66116 19.53358 39306 ft 466 kts 164°
2026-04-30 14:01 47.59852 19.55770 39302 ft 466 kts 164°
2026-04-30 14:02 47.53588 19.58176 39299 ft 466 kts 164°
2026-04-30 14:02 47.47297 19.60587 39301 ft 465 kts 164°
2026-04-30 14:03 47.41040 19.62978 39300 ft 465 kts 164°
2026-04-30 14:03 47.34799 19.65358 39300 ft 464 kts 165°
2026-04-30 14:04 47.28693 19.67680 39297 ft 464 kts 165°
2026-04-30 14:04 47.22537 19.70014 39293 ft 464 kts 165°
2026-04-30 14:05 47.16328 19.72366 39293 ft 463 kts 165°
2026-04-30 14:05 47.10062 19.74732 39296 ft 463 kts 165°
2026-04-30 14:06 47.00726 19.78249 39301 ft 462 kts 166°
2026-04-30 14:07 46.91410 19.81742 39302 ft 461 kts 166°
2026-04-30 14:08 46.82299 19.85147 39307 ft 462 kts 166°
2026-04-30 14:08 46.73043 19.88596 39304 ft 463 kts 166°
2026-04-30 14:09 46.66814 19.90911 39300 ft 462 kts 166°
2026-04-30 14:10 46.57468 19.94372 39289 ft 462 kts 166°
2026-04-30 14:10 46.51235 19.96672 39285 ft 462 kts 166°
2026-04-30 14:11 46.45010 19.98965 39283 ft 462 kts 166°
2026-04-30 14:11 46.38766 20.01259 39280 ft 462 kts 166°
2026-04-30 14:12 46.32547 20.03541 39274 ft 463 kts 166°
2026-04-30 14:12 46.26299 20.05827 39274 ft 463 kts 166°
2026-04-30 14:13 46.20021 20.08119 39273 ft 463 kts 166°
2026-04-30 14:13 46.13929 20.10905 39267 ft 464 kts 159°
2026-04-30 14:14 46.07975 20.14439 39263 ft 464 kts 158°
2026-04-30 14:14 46.01988 20.18020 39259 ft 464 kts 158°
2026-04-30 14:15 45.96033 20.21564 39257 ft 464 kts 158°
2026-04-30 14:15 45.90090 20.25090 39256 ft 464 kts 158°
2026-04-30 14:16 45.84103 20.28634 39256 ft 464 kts 158°
2026-04-30 14:16 45.78107 20.32174 39253 ft 464 kts 158°
2026-04-30 14:17 45.72148 20.35685 39251 ft 464 kts 158°
2026-04-30 14:17 45.66197 20.39183 39250 ft 464 kts 159°
2026-04-30 14:18 45.60229 20.42682 39247 ft 463 kts 159°
2026-04-30 14:18 45.51316 20.47893 39244 ft 463 kts 159°
2026-04-30 14:19 45.42337 20.53125 39244 ft 463 kts 159°
2026-04-30 14:20 45.36385 20.56584 39241 ft 463 kts 159°
2026-04-30 14:20 45.27419 20.61778 39230 ft 462 kts 159°
2026-04-30 14:21 45.21471 20.65215 39232 ft 462 kts 160°
2026-04-30 14:22 45.12613 20.70317 39229 ft 462 kts 160°
2026-04-30 14:22 45.03698 20.75435 39231 ft 461 kts 160°
2026-04-30 14:23 44.91766 20.82260 39239 ft 461 kts 160°
2026-04-30 14:24 44.82850 20.87339 39230 ft 461 kts 160°
2026-04-30 14:25 44.70925 20.94106 39224 ft 461 kts 160°
2026-04-30 14:26 44.61997 20.99153 39228 ft 460 kts 160°
2026-04-30 14:27 44.53100 21.04165 39226 ft 459 kts 161°
2026-04-30 14:27 44.47159 21.07502 39225 ft 460 kts 161°
2026-04-30 14:28 44.38245 21.12498 39235 ft 459 kts 161°
2026-04-30 14:28 44.32312 21.15813 39233 ft 459 kts 161°
2026-04-30 14:29 44.21421 21.21877 39233 ft 458 kts 161°
2026-04-30 14:31 44.05610 21.30643 39253 ft 459 kts 162°
2026-04-30 14:31 43.96736 21.35537 39234 ft 457 kts 162°
2026-04-30 14:32 43.87835 21.40433 39239 ft 457 kts 162°
2026-04-30 14:33 43.81896 21.43690 39241 ft 458 kts 162°
2026-04-30 14:33 43.72980 21.48568 39238 ft 458 kts 162°
2026-04-30 14:34 43.67025 21.51818 39242 ft 458 kts 162°
2026-04-30 14:34 43.61073 21.55059 39241 ft 457 kts 162°
2026-04-30 14:35 43.52201 21.59877 39242 ft 457 kts 162°
2026-04-30 14:36 43.46267 21.63091 39234 ft 457 kts 162°
2026-04-30 14:36 43.40367 21.66277 39243 ft 457 kts 163°
2026-04-30 14:37 43.34399 21.69497 39243 ft 457 kts 163°
2026-04-30 14:37 43.28482 21.72684 39259 ft 455 kts 163°
2026-04-30 14:38 43.22569 21.75856 39237 ft 456 kts 163°
2026-04-30 14:38 43.16657 21.79024 39236 ft 456 kts 163°
2026-04-30 14:39 43.10766 21.82175 39234 ft 456 kts 164°
2026-04-30 14:39 43.04842 21.85336 39233 ft 456 kts 163°
2026-04-30 14:40 42.95992 21.90049 39224 ft 456 kts 164°
2026-04-30 14:40 42.90076 21.93190 39204 ft 454 kts 164°
2026-04-30 14:41 42.84180 21.96314 39183 ft 455 kts 164°
2026-04-30 14:41 42.78395 21.99373 39167 ft 455 kts 164°
2026-04-30 14:42 42.72433 22.02519 39154 ft 455 kts 164°
2026-04-30 14:42 42.66524 22.05630 39145 ft 455 kts 164°
2026-04-30 14:43 42.60624 22.08733 39133 ft 456 kts 165°
2026-04-30 14:43 42.54695 22.11841 39129 ft 456 kts 164°
2026-04-30 14:44 42.48764 22.14947 39119 ft 456 kts 165°
2026-04-30 14:44 42.42859 22.18033 39125 ft 457 kts 165°
2026-04-30 14:45 42.36915 22.21134 39113 ft 455 kts 165°
2026-04-30 14:45 42.30961 22.23915 39111 ft 451 kts 170°
2026-04-30 14:46 42.24857 22.25736 39123 ft 446 kts 176°
2026-04-30 14:46 42.18744 22.27161 39118 ft 444 kts 176°
2026-04-30 14:47 42.12628 22.28590 39133 ft 446 kts 176°
2026-04-30 14:47 42.06498 22.30030 39130 ft 446 kts 176°
2026-04-30 14:48 42.00404 22.31458 39164 ft 446 kts 176°
2026-04-30 14:48 41.94261 22.32898 39126 ft 445 kts 176°
2026-04-30 14:49 41.88162 22.34323 39111 ft 444 kts 177°
2026-04-30 14:49 41.82120 22.35733 39142 ft 444 kts 177°
2026-04-30 14:50 41.72919 22.37873 39099 ft 444 kts 176°
2026-04-30 14:51 41.63710 22.40009 39111 ft 445 kts 177°
2026-04-30 14:52 41.54561 22.42126 39102 ft 445 kts 177°
2026-04-30 14:52 41.45373 22.44246 39084 ft 445 kts 177°
2026-04-30 14:53 41.36224 22.46349 39116 ft 446 kts 176°
2026-04-30 14:54 41.23976 22.49161 39113 ft 448 kts 177°
2026-04-30 14:55 41.14774 22.51261 39100 ft 448 kts 178°
2026-04-30 14:56 41.02504 22.52823 39121 ft 443 kts 182°
2026-04-30 14:57 40.93266 22.53818 39099 ft 443 kts 182°
2026-04-30 14:58 40.81026 22.55137 39092 ft 445 kts 182°
2026-04-30 14:58 40.71787 22.56137 39086 ft 444 kts 182°
2026-04-30 15:00 40.56422 22.58588 39049 ft 456 kts 166°
2026-04-30 15:01 40.44519 22.64601 39051 ft 458 kts 163°
2026-04-30 15:01 40.35577 22.69169 39038 ft 458 kts 164°
2026-04-30 15:02 40.29663 22.72171 39023 ft 457 kts 164°
2026-04-30 15:03 40.14856 22.79652 39029 ft 456 kts 164°
2026-04-30 15:04 40.00050 22.87095 39016 ft 455 kts 164°
2026-04-30 15:06 39.85340 22.94459 38993 ft 455 kts 164°
2026-04-30 15:07 39.73488 23.00365 38816 ft 455 kts 164°
2026-04-30 15:07 39.67604 23.03292 38263 ft 450 kts 163°
2026-04-30 15:08 39.61797 23.06175 37657 ft 444 kts 163°
2026-04-30 15:08 39.53151 23.10453 36730 ft 442 kts 163°
2026-04-30 15:09 39.47393 23.13296 36208 ft 443 kts 163°
2026-04-30 15:09 39.41591 23.16157 35745 ft 443 kts 163°
2026-04-30 15:10 39.35831 23.18992 35156 ft 443 kts 163°
2026-04-30 15:11 39.24289 23.24657 32941 ft 445 kts 163°
2026-04-30 15:11 39.18556 23.27469 32102 ft 436 kts 163°
2026-04-30 15:12 39.10136 23.31584 30816 ft 425 kts 163°
2026-04-30 15:13 39.04640 23.34263 29956 ft 419 kts 163°
2026-04-30 15:14 38.93921 23.39475 28284 ft 405 kts 163°
2026-04-30 15:14 38.86053 23.43292 27023 ft 396 kts 163°
2026-04-30 15:16 38.73304 23.49453 24919 ft 384 kts 163°
2026-04-30 15:17 38.63293 23.53706 23455 ft 372 kts 178°
2026-04-30 15:18 38.50215 23.55239 20469 ft 383 kts 178°
2026-04-30 15:19 38.42175 23.56224 18559 ft 387 kts 178°